Weather History for KBPT - September, 2013

Change the Weather History Date:

Monday, September 30, 2013

  Actual Average Record
Temperature  
Mean Temperature 80 °F 75 °F  
Max Temperature 87 °F 85 °F 101 °F (1904)
Min Temperature 73 °F 65 °F 49 °F (1949)
Degree Days  
Heating Degree Days 0 0  
Month to date heating degree days 0 0  
Since 1 July heating degree days 0 1  
Cooling Degree Days 15 10  
Month to date cooling degree days 534 419  
Year to date cooling degree days 2724 2586  
Growing Degree Days 30 (Base 50)    
Moisture  
Dew Point 73 °F    
Average Humidity 79    
Maximum Humidity 94    
Minimum Humidity 63    
Precipitation  
Precipitation 1.04 in 0.17 in 3.43 in (1988)
Month to date precipitation 8.14 5.97  
Year to date precipitation 43.35 45.20  
Snow  
Snow 0.00 in 0.00 in 0.00 in ()
Month to date snowfall 0.0 0.0  
Since 1 July snowfall 0.0 0.0  
Since 1 September snowfall 0.0 0.0  
Snow Depth 0.00 in    
Sea Level Pressure  
Sea Level Pressure 29.88 in    
Wind  
Wind Speed 6 mph (SSE)    
Max Wind Speed 17 mph    
Max Gust Speed 35 mph    
Visibility 8 miles    
Events Rain , Thunderstorm    
T = Trace of Precipitation, MM = Missing Value Source: NWS Daily Summary

Daily Weather History Graph

Daily Weather History Graph

Search for Another Location

Airport or City:

Trip Planner

Search our weather history database for the weather conditions in past years. The results will help you decide how hot, cold, wet, or windy it might be!

Date:

Astronomy

Sep. 30, 2013 Rise Set
Actual Time 7:09 AM CDT 7:02 PM CDT
Civil Twilight 6:45 AM CDT 7:26 PM CDT
Nautical Twilight 6:17 AM CDT 7:53 PM CDT
Astronomical Twilight 5:49 AM CDT 8:21 PM CDT
Moon 3:03 AM CDT (9/30) 4:19 PM CDT (9/30)
Length of Visible Light 12h 41m
Length of Day
11h 53m
Waning Crescent, 19% of the Moon is Illuminated
Sep 30
Waning Crescent
Oct 4
New
Oct 11
First Quarter
Oct 18
Full
Oct 26
Last Quarter

Hourly Weather History & Observations

Time (CDT) Temp. Heat Index Dew Point Humidity Pressure Visibility Wind Dir Wind Speed Gust Speed Precip Events Conditions
12:53 AM 73.9 °F - 71.1 °F 91% 29.90 in 10.0 mi ESE 3.5 mph - 0.00 in   Scattered Clouds
1:53 AM 73.9 °F - 72.0 °F 93% 29.90 in 10.0 mi Calm Calm - N/A   Overcast
2:53 AM 75.0 °F - 72.0 °F 90% 29.88 in 10.0 mi Calm Calm - N/A   Overcast
3:09 AM 75.2 °F - 73.4 °F 94% 29.88 in 10.0 mi SSE 4.6 mph - N/A   Overcast
3:53 AM 77.0 °F - 73.9 °F 90% 29.87 in 10.0 mi South 3.5 mph - N/A   Overcast
4:00 AM 77.0 °F - 73.4 °F 89% 29.87 in 10.0 mi SSE 4.6 mph - N/A   Overcast
4:53 AM 77.0 °F - 73.9 °F 90% 29.87 in 10.0 mi South 12.7 mph - N/A   Overcast
5:53 AM 75.0 °F - 72.0 °F 90% 29.88 in 10.0 mi Calm Calm - 0.02 in   Overcast
6:53 AM 75.0 °F - 72.0 °F 90% 29.88 in 10.0 mi SSW 5.8 mph - N/A   Overcast
7:53 AM 73.9 °F - 71.1 °F 91% 29.88 in 4.0 mi SSE 6.9 mph - 0.03 in Rain Rain
8:04 AM 75.2 °F - 71.6 °F 89% 29.88 in 1.8 mi SW 4.6 mph - 0.01 in Rain Light Rain
8:11 AM 75.2 °F - 71.6 °F 89% 29.88 in 1.0 mi South 5.8 mph - 0.08 in Rain Heavy Rain
8:16 AM 73.4 °F - 71.6 °F 94% 29.88 in 2.0 mi SE 4.6 mph - 0.11 in Rain Heavy Rain
8:25 AM 75.2 °F - 73.4 °F 94% 29.88 in 10.0 mi SSE 3.5 mph - 0.12 in Rain Light Rain
8:53 AM 75.9 °F - 73.9 °F 94% 29.89 in 10.0 mi Calm Calm - 0.12 in   Overcast
9:53 AM 78.1 °F - 72.0 °F 81% 29.90 in 10.0 mi SSW 10.4 mph - N/A   Mostly Cloudy
10:53 AM 82.0 °F 86.3 °F 71.1 °F 69% 29.89 in 10.0 mi South 10.4 mph - N/A   Overcast
11:53 AM 82.0 °F 87.9 °F 73.9 °F 76% 29.90 in 10.0 mi SSW 5.8 mph - N/A   Overcast
12:53 PM 87.1 °F 95.4 °F 73.9 °F 65% 29.88 in 10.0 mi South 8.1 mph - N/A   Mostly Cloudy
1:38 PM 82.4 °F 89.5 °F 75.2 °F 79% 29.87 in 1.8 mi SSW 6.9 mph - 0.02 in Rain Heavy Rain
1:47 PM 82.4 °F 89.5 °F 75.2 °F 79% 29.86 in 3.0 mi South 11.5 mph - 0.08 in Rain Light Rain
1:53 PM 82.9 °F 90.2 °F 75.0 °F 77% 29.86 in 10.0 mi SSW 9.2 mph 19.6 mph 0.08 in Rain Light Rain
2:07 PM 80.6 °F 86.2 °F 75.2 °F 84% 29.85 in 8.0 mi SSW 5.8 mph 16.1 mph 0.00 in Rain , Thunderstorm Light Thunderstorms and Rain
2:24 PM 78.8 °F - 73.4 °F 83% 29.87 in 10.0 mi NE 8.1 mph 18.4 mph 0.00 in Thunderstorm Thunderstorm
2:46 PM 75.2 °F - 73.4 °F 94% 29.87 in 10.0 mi North 13.8 mph - 0.00 in Thunderstorm Thunderstorm
2:53 PM 75.9 °F - 72.0 °F 87% 29.87 in 10.0 mi NE 16.1 mph 20.7 mph 0.00 in Rain , Thunderstorm Light Thunderstorms and Rain
3:30 PM 75.2 °F - 71.6 °F 89% 29.88 in 1.0 mi ESE 12.7 mph - 0.03 in Rain , Thunderstorm Heavy Thunderstorms and Rain
3:39 PM 73.4 °F - 69.8 °F 88% 29.86 in 1.0 mi ESE 15.0 mph 19.6 mph 0.07 in Rain , Thunderstorm Heavy Thunderstorms and Rain
3:53 PM 73.0 °F - 72.0 °F 96% 29.85 in 1.0 mi SSW 8.1 mph - 0.25 in Rain , Thunderstorm Heavy Thunderstorms and Rain
4:53 PM 75.0 °F - 72.0 °F 90% 29.87 in 10.0 mi SSE 6.9 mph - 0.48 in Rain Light Rain
5:53 PM 75.9 °F - 73.0 °F 91% 29.84 in 10.0 mi WSW 3.5 mph - 0.06 in   Partly Cloudy
6:53 PM 75.9 °F - 73.0 °F 91% 29.84 in 10.0 mi Calm Calm - N/A   Clear
7:53 PM 75.9 °F - 73.0 °F 91% 29.86 in 10.0 mi ENE 5.8 mph - N/A   Clear
8:53 PM 75.0 °F - 73.0 °F 94% 29.88 in 10.0 mi East 3.5 mph - N/A   Clear
9:53 PM 75.0 °F - 72.0 °F 90% 29.89 in 10.0 mi NE 5.8 mph - N/A   Clear
10:53 PM 73.9 °F - 72.0 °F 93% 29.90 in 10.0 mi ESE 4.6 mph - N/A   Clear
11:53 PM 75.9 °F - 73.9 °F 94% 29.90 in 8.0 mi ESE 4.6 mph - N/A   Clear